星链-34796 (STARLINK-34796)

导读

STARLINK-34782是美国星链计划的一颗卫星,于北京时间2025年8月28日发射。星链计划旨在构建全球卫星互联网星座,为全球范围内提供高速互联网服务,尤其覆盖偏远地区。该卫星加入星链星座后,将进一步扩容星座网络容量,提升系统服务的稳定性与覆盖能力,推动全球互联基础设施建设。

基本信息
目录编号:
65358
目录名称:
STARLINK-34782
国际标识:
2025-190H
轨道中心:
EARTH
卫星名称:
星链-34796
卫星全名:
星链-34796 (STARLINK-34796)
卫星状态:
在轨 (已飞行289 天)
发射日期:
2025-08-28 UTC
国别 :
美国 (US)
星等 :
--
轨道信息
数据来源 国际轨道数据 AOE轨道数据
星历时间 2026-06-13T09:46:11+0800
16小时前
查看轨道信息
2026-06-11T21:00:00+0800
2天前
查看轨道信息
半长轴 6853.274km 6853.401km
偏心率 0.0001181 0.0001482
轨道倾角 53.158° 53.158°
近地点辐角 101.822° 93.570°
升交点赤经 84.796° 91.912°
平近点角 258.292° 102.072°
近地点 474.327km 474.248km
远地点 475.947km 476.28km
周期 94.104分钟 94.106分钟
每日圈数 15.302263 15.301838
详细信息
固有亮度:
5
最大亮度:
2.5
卫星平台:
Starlink V1.0
覆盖范围:
全球
运营商:
太空探索技术公司
运营商所在国:
美国
制造商(研发单位):
太空探索技术公司
制造商所在国:
美国
使用方式:
暂无
卫星简介
Starlink 计划是 SpaceX 推出的全球卫星互联网项目,通过发射低轨道卫星,为全球尤其是偏远地区提供高速、低延迟的互联网服务。自 2019 年起,Starlink 已部署数千颗卫星,旨在缩小全球数字鸿沟,推动互联网普及。该项目还为军事、航空等行业提供通信支持,带来广泛经济效益。
2D轨道图
3D轨道图
轨道高度分析图
轨道倾角分析图
轨道综合分析图
查看轨道综合分析图